Volver al catálogo

CZ-6A DEB

ActivoPO
NORAD 64637·DEBRIS·🇨🇳 China

Lanzado Aug 6, 2024 desde Taiyuan Satellite Launch Center

Loading…

Próximos Pases (próximas 24 horas)

TLE

ActualizadoSource: Space-Track

Época: Sep 13, 2026, 23:40 UTC

1 64637U 24140AEB 26256.98661904  .00003973  00000-0  12753-2 0  9993
2 64637  89.0060 263.5020 0009392 187.0093 173.0979 14.39277006104178

Sigue CZ-6A DEB en tiempo real con AllMySat

Download on the App Store